This is the latest recevied weather packets stored in our database for station/object KO4FR. If no packets are shown the sender has not sent any weather packets the latest 10 day(s).
| Time | Temp. | Humidity | Pressure | Rain* | Wind** | Luminosity | Snow |
|---|---|---|---|---|---|---|---|
| 1777812597 | 10° C | 55% | 1019.2 hPa | 0 mm | - | - | - |
| 1777812297 | 9.44° C | 60% | 1019.3 hPa | 0 mm | - | - | - |
| 1777811998 | 9.44° C | 59% | 1019.3 hPa | 0 mm | - | - | - |
| 1777811697 | 8.89° C | 65% | 1019.1 hPa | 0 mm | - | - | - |
| 1777811397 | 8.89° C | 65% | 1019.1 hPa | 0 mm | - | - | - |
| 1777811097 | 8.33° C | 67% | 1019.1 hPa | 0 mm | - | - | - |
| 1777810797 | 8.33° C | 67% | 1019 hPa | 0 mm | - | - | - |
| 1777810497 | 7.78° C | 69% | 1019.1 hPa | 0 mm | - | - | - |
| 1777810197 | 7.22° C | 69% | 1019 hPa | 0 mm | - | - | - |
| 1777809897 | 6.67° C | 63% | 1018.8 hPa | 0 mm | - | - | - |
| 1777809597 | 6.11° C | 60% | 1018.8 hPa | 0 mm | - | - | - |
| 1777809297 | 5.56° C | 49% | 1018.8 hPa | 0 mm | - | - | - |
| 1777808997 | 5.56° C | 32% | 1018.6 hPa | 0 mm | - | - | - |
| 1777808697 | 5° C | 29% | 1018.5 hPa | 0 mm | - | - | - |
| 1777808397 | 4.44° C | 29% | 1018.4 hPa | 0 mm | - | - | - |
| 1777808097 | 4.44° C | 28% | 1018.3 hPa | 0 mm | - | - | - |
| 1777807797 | 3.89° C | 28% | 1018.3 hPa | 0 mm | - | - | - |
| 1777807496 | 3.89° C | 29% | 1018.4 hPa | 0 mm | - | - | - |
| 1777807196 | 3.33° C | 30% | 1018.3 hPa | 0 mm | - | - | - |
| 1777806896 | 3.33° C | 32% | 1018.1 hPa | 0 mm | - | - | - |
| 1777806597 | 2.78° C | 35% | 1018 hPa | 0 mm | - | - | - |
| 1777806297 | 2.78° C | 38% | 1017.9 hPa | 0 mm | - | - | - |
| 1777805997 | 2.78° C | 38% | 1017.8 hPa | 0 mm | - | - | - |
| 1777805696 | 2.78° C | 36% | 1017.7 hPa | 0 mm | - | - | - |
| 1777805397 | 2.78° C | 37% | 1017.6 hPa | 0 mm | - | - | - |
* Rain latest hour (hover to see other rain measurements)
** Current wind speed in m/s (hover to see current wind gust speed)